Weather Roundup
Issued by NWS

Home | Current Version | Previous Version | Text Only | Print | Product List | Glossary On
Versions: 1 2 3 4 5 6 7 8 9 10 11 12 13 14 15 16 17 18 19 20 21 22 23 24 25 26 27 28 29 30 31 32 33 34 35 36 37 38 39 40 41 42 43 44 45 46 47 48 49 50
000
NZUS93 KARX 131259
HRRWXR

CURRENT HOURLY OBSERVATIONS ACROSS
MUCH OF THE UPPER MISSISSIPPI VALLEY
NATIONAL WEATHER SERVICE LA CROSSE WI
800 AM CDT SUN JUL 13 2014


...SOUTHEAST MINNESOTA...


CITY           SKY/WX    TMP DP  RH WIND       PRES   REMARKS
ROCHESTER      CLOUDY    66  63  90 NW12      29.98S
ROCHESTER/MAYO CLOUDY    66  63  90 W12       29.96S
WINONA         PTSUNNY   70  64  83 NW9       29.93S
AUSTIN         NOT AVBL
ALBERT LEA     PTSUNNY   68  64  88 W7        29.99R
DODGE CENTER   CLOUDY    66  63  88 N10       29.98R
PRESTON        SUNNY     68  65  92 W12       29.98R
OWATONNA       SUNNY     66  63  88 NW9       29.98R
FARIBAULT      SUNNY     70  59  68 NW6       29.99R
$$

...ELSEWHERE IN MINNESOTA...


CITY           SKY/WX    TMP DP  RH WIND       PRES   REMARKS
MINNEAPOLIS    MOSUNNY   65  58  78 NW7       29.98R
INTNL FALLS    CLOUDY    53  49  86 W9        29.84S
DULUTH         SUNNY     58  49  72 W9        29.91S
RED WING       SUNNY     66  57  72 N5        29.96R
REDWOOD FALLS  SUNNY     64  60  87 NW8       30.01R
MANKATO        SUNNY     66  57  72 NW7       30.00R
WORTHINGTON    SUNNY     66  63  88 NW3       30.06S
FAIRMONT       SUNNY     70  61  73 NW12      30.02R
$$

...SOUTHWEST WISCONSIN...


CITY           SKY/WX    TMP DP  RH WIND       PRES   REMARKS
LA CROSSE      MOSUNNY   69  64  84 W9        29.92R
PRAIRIE DU CHI CLOUDY    67  64  91 SW3       29.95S
BOSCOBEL       CLOUDY    68  65  90 SW7       29.95S
LONE ROCK      NOT AVBL
PLATTEVILLE    CLOUDY    65  64  96 W7        29.98S
FORT MC COY    PTSUNNY   63  63  97 W3        29.92S FOG
VIROQUA        PTSUNNY   65  65 100 SW7       29.95S
WIS DELLS      CLOUDY    64  62  94 W9        29.93S
$$

...ELSEWHERE IN WISCONSIN...


CITY           SKY/WX    TMP DP  RH WIND       PRES   REMARKS
MILWAUKEE      MOSUNNY   68  62  81 W12       29.91S
MADISON        CLOUDY    67  64  90 W7        29.94R
GREEN BAY      CLOUDY    67  63  87 W9        29.87R
EAU CLAIRE     NOT AVBL
BLACK RVR FLS  CLOUDY    65  65 100 CALM      29.91S
MEDFORD        PTSUNNY   60  57  90 NW8G16    29.91R
WAUSAU         SUNNY     66  61  84 W13       29.88R
WIS RAPIDS     PTSUNNY   66  64  93 W7        29.91F
MARSHFIELD     CLOUDY    65  62  90 NW8       29.91R
RICE LAKE      SUNNY     59  54  84 W5        29.95R
$$

...NORTHEAST IOWA...


CITY           SKY/WX    TMP DP  RH WIND       PRES   REMARKS
WATERLOO       PTSUNNY   65  64  97 SW7       29.99R FOG
DUBUQUE        PTSUNNY   66  65  96 W7        29.98S
DECORAH          N/A    N/A N/A N/A MISG        N/A
MASON CITY     MOSUNNY   69  67  93 W9        30.01R
CHARLES CITY   SUNNY     64  64 100 SW6       29.99R
OELWEIN        FOG       64  64 100 SW8       30.00S VSB<1/4
$$

...ELSEWHERE IN IOWA...


CITY           SKY/WX    TMP DP  RH WIND       PRES   REMARKS
DES MOINES     MOSUNNY   71  67  87 NW7       30.02R
IOWA CITY      CLOUDY    69  67  93 W7        30.01R
FORT DODGE     SUNNY     68  66  94 W5        30.03R
MARSHALLTOWN   FOG       66  65  96 W7        30.01R VSB 1/4
CEDAR RAPIDS   CLOUDY    67  65  93 W8        30.00R FOG
$$

...NORTHERN ILLINOIS...


CITY           SKY/WX    TMP DP  RH WIND       PRES   REMARKS
CHICAGO-OHARE  PTSUNNY   68  62  81 W9        29.95R
DUPAGE         CLOUDY    68  64  87 NW7       29.96R
CHICAGO-MIDWAY PTSUNNY   72  67  84 W10       29.95R
MOLINE         CLOUDY    68  65  90 W7        29.99R
ROCKFORD       PTSUNNY   66  62  87 NW10      29.98S
STERLING       CLOUDY    66  63  88 NW8       29.98R
PEORIA         CLOUDY    73  67  81 CALM      29.99R
$$

NOTE: "FAIR" INDICATES FEW OR NO CLOUDS BELOW 12,000 FEET WITH NO
SIGNIFICANT WEATHER AND/OR OBSTRUCTIONS TO VISIBILITY. WIND
SPEEDS ARE IN MILES-PER-HOUR.



USA.gov is the U.S. government's official web portal to all federal, state and local government web resources and services.